�N����,����,�~����,�C��,���x,�C��,����,���ϕ���,�ő�u�ԕ���,�ő厞����,���˗�,�I�_���x,�n�����x,�ő啗���N��,DTYPE
"23/08/05","00:10",0.0,26.4,81.5,999.3,320.8,1.0,1.9,343.2,0.00,23.0,26.7,"00:05:04",1
"23/08/05","00:20",0.0,26.3,81.7,999.3,323.6,0.8,1.4,337.1,0.00,23.0,26.9,"00:17:44",1
"23/08/05","00:30",0.0,26.2,82.1,999.1,299.4,0.8,1.4,263.3,0.00,22.9,26.7,"00:23:28",1
"23/08/05","00:40",0.0,26.1,82.4,999.3,324.5,1.0,1.2,313.8,0.00,22.9,26.7,"00:30:32",1
"23/08/05","00:50",0.0,26.1,82.8,999.1,322.5,1.1,2.2,342.7,0.00,23.0,26.5,"00:44:16",1
"23/08/05","01:00",0.0,26.2,83.0,998.9,331.6,0.8,1.4,328.3,0.00,23.1,26.7,"00:51:12",1
"23/08/05","01:10",0.0,26.3,83.4,999.1,328.6,1.1,1.4,335.5,0.00,23.3,26.5,"01:09:04",1
"23/08/05","01:20",0.0,26.1,83.6,999.1,320.1,0.7,1.6,325.0,0.00,23.1,26.4,"01:11:04",1
"23/08/05","01:30",0.0,26.0,83.9,998.9,280.7,0.8,1.8,245.1,0.00,23.1,26.3,"01:24:32",1
"23/08/05","01:40",0.0,26.0,84.0,999.1,302.7,0.7,1.6,283.2,0.00,23.1,26.4,"01:30:08",1
"23/08/05","01:50",0.0,26.1,84.2,998.9,332.9,0.8,1.3,298.7,0.00,23.3,26.5,"01:41:44",1
"23/08/05","02:00",0.0,25.8,84.8,998.9,330.0,1.0,1.4,339.1,0.00,23.1,26.4,"01:54:32",1
"23/08/05","02:10",0.0,25.6,85.4,998.6,296.5,0.6,1.2,260.5,0.00,23.0,26.4,"02:02:00",1
"23/08/05","02:20",0.0,25.6,85.8,998.6,280.5,0.6,1.1,264.6,0.00,23.1,26.4,"02:10:02",1
"23/08/05","02:30",0.0,25.7,86.0,998.6,307.6,1.0,1.4,339.8,0.00,23.2,26.2,"02:25:28",1
"23/08/05","02:40",0.0,25.7,86.1,998.6,321.4,0.7,1.7,335.4,0.00,23.2,26.3,"02:30:16",1
"23/08/05","02:50",0.0,25.6,86.2,998.6,260.7,0.6,0.9,251.8,0.00,23.2,26.2,"02:46:56",1
"23/08/05","03:00",0.0,25.6,86.4,998.4,304.1,0.7,1.4,342.6,0.00,23.2,26.1,"02:58:56",1
"23/08/05","03:10",0.0,25.7,86.6,998.6,330.6,1.2,1.8,340.0,0.00,23.3,26.3,"03:05:20",1
"23/08/05","03:20",0.0,25.7,86.7,998.6,317.3,1.0,1.4,329.5,0.00,23.4,26.2,"03:10:08",1
"23/08/05","03:30",0.0,25.8,86.9,998.9,321.9,1.0,1.8,340.9,0.00,23.5,26.1,"03:26:24",1
"23/08/05","03:40",0.0,25.8,87.0,998.6,335.3,1.0,1.3,1.7,0.00,23.5,26.1,"03:30:32",1
"23/08/05","03:50",0.0,25.7,87.3,998.6,336.5,0.8,1.1,325.1,0.00,23.5,25.9,"03:41:04",1
"23/08/05","04:00",0.0,25.7,87.6,998.4,302.6,0.7,1.2,335.7,0.00,23.5,25.9,"03:53:52",1
"23/08/05","04:10",0.0,25.6,87.8,998.6,299.8,0.8,1.4,308.6,0.00,23.5,26.0,"04:06:40",1
"23/08/05","04:20",0.0,25.7,87.9,998.6,297.0,0.8,1.3,317.2,0.00,23.6,26.0,"04:15:12",1
"23/08/05","04:30",0.0,25.8,87.9,999.1,302.9,0.7,1.3,290.9,0.00,23.7,25.9,"04:28:56",1
"23/08/05","04:40",0.0,25.8,87.8,998.6,295.8,0.5,0.9,265.6,0.00,23.7,25.8,"04:39:44",1
"23/08/05","04:50",0.0,25.8,87.9,999.1,304.6,0.8,1.3,306.9,0.00,23.7,26.0,"04:49:04",1
"23/08/05","05:00",0.0,26.0,87.7,998.9,310.7,1.0,1.3,330.0,0.00,23.8,26.0,"04:56:48",1
"23/08/05","05:10",0.0,26.1,87.6,999.1,309.4,0.8,1.4,328.4,0.00,23.9,26.0,"05:04:16",1
"23/08/05","05:20",0.0,26.1,87.4,999.3,307.1,0.7,1.1,328.4,0.00,23.9,25.9,"05:10:16",1
"23/08/05","05:30",0.0,26.0,87.3,998.9,294.8,0.5,1.0,318.4,0.00,23.8,25.9,"05:27:04",1
"23/08/05","05:40",0.0,26.2,87.2,998.9,311.7,0.8,1.2,335.2,0.00,23.9,25.9,"05:36:32",1
"23/08/05","05:50",0.0,26.3,87.2,998.9,332.0,0.7,1.1,344.8,0.00,24.0,25.9,"05:45:04",1
"23/08/05","06:00",0.0,26.3,87.2,998.9,297.6,0.5,1.2,333.5,0.00,24.0,25.7,"05:51:12",1
"23/08/05","06:10",0.0,26.5,87.3,998.9,310.4,0.8,1.2,342.5,0.02,24.3,25.7,"06:05:28",1
"23/08/05","06:20",0.0,26.9,87.0,998.9,330.1,1.0,1.9,342.9,0.06,24.6,25.7,"06:18:32",1
"23/08/05","06:30",0.0,27.8,85.5,998.9,332.0,0.8,1.7,344.6,0.08,25.2,25.7,"06:20:32",1
"23/08/05","06:40",0.0,28.7,82.8,999.1,353.9,0.6,1.4,344.0,0.07,25.5,25.8,"06:38:56",1
"23/08/05","06:50",0.0,29.7,79.0,998.2,51.5,0.5,1.2,44.9,0.08,25.7,25.9,"06:42:08",1
"23/08/05","07:00",0.0,30.2,75.2,998.6,123.0,0.8,2.2,151.3,0.10,25.4,25.8,"06:58:32",1
"23/08/05","07:10",0.0,30.9,72.6,998.9,94.4,0.6,2.1,83.4,0.13,25.4,25.9,"07:08:48",1
"23/08/05","07:20",0.0,31.2,70.1,999.3,124.9,0.8,1.9,115.7,0.15,25.1,25.9,"07:13:36",1
"23/08/05","07:30",0.0,31.6,68.5,999.6,113.1,1.0,2.1,131.0,0.19,25.1,25.8,"07:24:56",1
"23/08/05","07:40",0.0,32.1,66.8,999.8,87.8,0.8,2.0,73.6,0.21,25.2,26.0,"07:30:32",1
"23/08/05","07:50",0.0,31.8,65.3,1000.0,104.0,0.8,2.2,112.1,0.12,24.5,26.1,"07:47:28",1
"23/08/05","08:00",0.0,31.9,66.6,999.8,116.7,0.7,1.3,173.4,0.24,24.9,26.2,"07:53:28",1
"23/08/05","08:10",0.0,32.6,65.2,1000.5,126.4,1.0,2.7,135.2,0.28,25.3,26.1,"08:07:40",1
"23/08/05","08:20",0.0,32.8,62.9,1001.0,108.1,1.1,2.6,139.7,0.30,24.8,26.0,"08:15:36",1
"23/08/05","08:30",0.0,33.2,61.0,1000.5,103.9,1.0,2.8,123.7,0.26,24.7,26.2,"08:28:48",1
"23/08/05","08:40",0.0,31.3,66.6,1000.3,168.9,1.3,2.6,190.8,0.10,24.4,26.1,"08:30:32",1
"23/08/05","08:50",0.0,31.7,66.0,1000.3,125.9,1.0,2.4,139.9,0.21,24.6,26.2,"08:47:20",1
"23/08/05","09:00",0.0,32.6,64.3,1000.3,125.2,1.0,2.2,132.7,0.27,25.0,26.3,"08:55:36",1
"23/08/05","09:10",0.0,33.7,61.7,1000.5,93.1,1.0,1.9,52.6,0.39,25.4,26.1,"09:08:00",1
"23/08/05","09:20",0.0,32.4,63.1,1000.0,151.3,1.3,2.5,152.4,0.10,24.5,26.3,"09:17:28",1
"23/08/05","09:30",0.0,33.2,63.2,1000.5,198.4,1.2,2.2,201.7,0.41,25.3,26.5,"09:26:40",1
"23/08/05","09:40",0.0,33.1,61.6,1000.5,152.6,1.7,3.7,116.4,0.31,24.8,26.4,"09:34:40",1
"23/08/05","09:50",0.0,33.3,61.1,1000.3,157.8,1.3,3.3,136.9,0.32,24.8,26.5,"09:42:32",1
"23/08/05","10:00",0.0,33.7,59.4,1000.3,147.3,1.2,2.4,152.7,0.28,24.7,26.4,"09:52:08",1
"23/08/05","10:10",0.0,33.1,61.3,1000.0,144.8,0.8,2.2,145.8,0.14,24.7,26.6,"10:02:24",1
"23/08/05","10:20",0.0,33.0,61.1,1000.0,160.0,1.6,4.3,156.8,0.21,24.5,26.7,"10:12:00",1
"23/08/05","10:30",0.0,33.3,61.4,1000.0,167.8,1.8,4.0,191.2,0.29,24.9,26.7,"10:24:56",1
"23/08/05","10:40",0.0,34.7,58.1,1000.0,149.9,1.6,3.2,113.0,0.53,25.3,27.1,"10:38:40",1
"23/08/05","10:50",0.0,36.1,54.3,1000.5,86.1,0.8,2.0,7.7,0.51,25.4,27.0,"10:43:52",1
"23/08/05","11:00",0.0,35.1,53.5,1000.5,149.3,1.5,5.8,222.8,0.35,24.3,27.1,"10:57:36",1
"23/08/05","11:10",0.0,36.1,52.1,1000.5,170.3,2.1,3.5,160.4,0.58,24.8,27.1,"11:07:52",1
"23/08/05","11:20",0.0,36.6,51.5,1000.5,110.3,1.2,2.8,114.1,0.49,25.0,27.2,"11:17:36",1
"23/08/05","11:30",0.0,36.5,49.4,1000.5,145.2,1.7,3.9,163.8,0.47,24.2,27.4,"11:22:00",1
"23/08/05","11:40",0.0,35.4,53.5,1000.0,137.2,1.1,2.9,129.5,0.20,24.6,27.2,"11:33:44",1
"23/08/05","11:50",0.0,36.4,49.4,1000.0,158.4,2.1,4.9,171.1,0.65,24.1,27.3,"11:46:40",1
"23/08/05","12:00",0.0,37.0,50.0,999.8,168.0,1.6,4.3,121.5,0.62,24.9,27.6,"11:51:28",1
"23/08/05","12:10",0.0,36.4,49.0,999.8,157.7,1.7,4.0,196.4,0.37,24.0,27.7,"12:03:12",1
"23/08/05","12:20",0.0,37.0,50.2,999.3,129.1,1.6,3.5,131.2,0.55,25.0,27.8,"12:16:32",1
"23/08/05","12:30",0.0,36.6,50.3,999.3,142.2,1.5,3.3,190.9,0.35,24.6,27.7,"12:29:12",1
"23/08/05","12:40",0.0,37.6,46.7,999.1,161.7,1.6,3.5,203.6,0.57,24.3,28.0,"12:30:32",1
"23/08/05","12:50",0.0,36.8,49.0,999.1,156.1,1.8,4.0,134.1,0.39,24.4,27.9,"12:45:36",1
"23/08/05","13:00",0.0,37.7,46.5,999.1,161.4,1.8,4.9,122.1,0.60,24.3,28.2,"12:52:08",1
"23/08/05","13:10",0.0,37.3,47.8,999.1,104.8,1.0,2.7,349.3,0.25,24.4,28.3,"13:07:36",1
"23/08/05","13:20",0.0,35.8,51.9,998.6,141.8,1.6,3.9,117.5,0.21,24.4,28.3,"13:12:00",1
"23/08/05","13:30",0.0,36.4,49.6,997.9,116.4,1.1,2.9,123.7,0.29,24.2,28.4,"13:27:36",1
"23/08/05","13:40",0.0,35.7,50.7,998.2,155.9,1.6,3.5,128.8,0.22,23.9,28.5,"13:33:44",1
"23/08/05","13:50",0.0,36.1,50.0,997.4,158.6,1.2,2.7,186.7,0.27,24.1,28.5,"13:43:44",1
"23/08/05","14:00",0.0,35.9,49.5,997.7,158.8,1.3,2.9,191.9,0.17,23.7,28.5,"13:55:12",1
"23/08/05","14:10",0.0,35.6,51.2,997.2,153.4,1.2,3.1,185.1,0.11,24.0,28.4,"14:07:52",1
"23/08/05","14:20",0.0,36.1,49.4,997.2,139.5,1.0,2.5,110.8,0.18,23.9,28.6,"14:15:04",1
"23/08/05","14:30",0.0,35.8,51.3,997.0,116.4,1.2,2.5,179.3,0.12,24.2,28.5,"14:20:56",1
"23/08/05","14:40",0.0,36.4,51.2,996.7,117.5,1.2,3.6,120.2,0.25,24.7,28.6,"14:31:36",1
"23/08/05","14:50",0.0,36.4,51.3,997.0,75.9,1.1,2.9,20.4,0.15,24.8,28.5,"14:43:52",1
"23/08/05","15:00",0.0,35.9,52.0,997.0,119.6,1.3,3.5,139.1,0.16,24.5,28.5,"14:57:20",1
"23/08/05","15:10",0.0,36.2,52.4,996.5,126.9,1.3,3.4,112.8,0.24,24.9,28.6,"15:01:20",1
"23/08/05","15:20",0.0,37.0,48.5,997.0,136.6,1.5,3.6,154.3,0.30,24.4,28.5,"15:19:44",1
"23/08/05","15:30",0.0,36.5,50.4,997.0,131.6,1.2,3.3,116.6,0.14,24.6,28.4,"15:23:52",1
"23/08/05","15:40",0.0,35.6,53.3,997.0,88.5,1.5,3.7,39.7,0.10,24.7,28.5,"15:36:56",1
"23/08/05","15:50",0.0,35.0,55.1,996.5,75.1,1.0,2.9,78.1,0.08,24.7,28.6,"15:44:32",1
"23/08/05","16:00",0.0,35.0,55.6,996.3,63.0,1.1,2.6,11.1,0.09,24.8,28.5,"15:54:00",1
"23/08/05","16:10",0.0,34.9,56.3,996.3,80.2,1.2,3.3,106.9,0.10,24.9,28.5,"16:04:00",1
"23/08/05","16:20",0.0,35.0,55.3,996.3,76.1,1.0,2.4,34.2,0.08,24.7,28.5,"16:13:44",1
"23/08/05","16:30",0.0,34.7,56.0,996.0,62.2,0.7,2.0,86.0,0.04,24.7,28.5,"16:29:04",1
"23/08/05","16:40",0.0,34.3,57.0,995.8,92.4,1.0,2.5,45.8,0.02,24.6,28.3,"16:31:36",1
"23/08/05","16:50",0.0,34.2,57.5,995.6,93.3,1.2,4.3,102.6,0.03,24.6,28.4,"16:47:12",1
"23/08/05","17:00",0.0,34.0,57.0,995.1,87.1,1.3,3.6,85.3,0.02,24.3,28.2,"16:50:08",1
"23/08/05","17:10",0.0,33.9,57.7,995.1,69.0,1.1,2.8,80.6,0.01,24.4,28.2,"17:09:04",1
"23/08/05","17:20",0.0,33.7,58.0,995.1,75.6,1.1,2.6,45.0,0.00,24.3,28.3,"17:12:40",1
"23/08/05","17:30",0.0,33.5,58.1,995.3,100.9,1.1,2.5,89.2,0.00,24.2,28.2,"17:20:08",1
"23/08/05","17:40",0.0,33.5,57.8,995.1,108.7,1.2,2.7,89.0,0.01,24.1,28.1,"17:36:48",1
"23/08/05","17:50",0.0,33.3,59.6,995.3,111.6,1.1,2.9,115.4,0.00,24.4,28.1,"17:43:36",1
"23/08/05","18:00",0.0,33.2,60.4,995.1,128.2,1.1,3.2,124.1,0.00,24.5,28.2,"17:50:48",1
"23/08/05","18:10",0.0,32.9,60.3,995.1,139.9,1.6,3.4,135.0,0.00,24.2,28.2,"18:04:56",1
"23/08/05","18:20",0.0,32.8,60.9,995.3,152.6,1.7,3.4,155.0,0.00,24.3,28.0,"18:17:04",1
"23/08/05","18:30",0.0,32.6,61.8,995.3,150.3,1.7,3.3,132.6,0.00,24.4,28.1,"18:26:48",1
"23/08/05","18:40",0.0,32.3,62.5,995.1,149.5,1.5,3.2,118.9,0.00,24.3,27.8,"18:34:24",1
"23/08/05","18:50",0.0,32.2,63.0,995.1,130.6,1.1,2.6,108.6,0.00,24.3,28.1,"18:49:28",1
"23/08/05","19:00",0.0,31.9,63.4,995.3,119.3,1.0,3.5,128.3,0.00,24.1,27.9,"18:56:32",1
"23/08/05","19:10",0.0,31.7,63.3,995.1,132.2,1.2,2.9,140.0,0.00,23.9,28.0,"19:08:16",1
"23/08/05","19:20",0.0,31.6,63.6,995.1,132.8,1.2,3.1,117.5,0.00,23.9,27.8,"19:11:12",1
"23/08/05","19:30",0.0,31.5,63.6,994.6,141.5,1.5,3.4,118.7,0.00,23.8,27.9,"19:23:12",1
"23/08/05","19:40",0.0,31.4,63.9,994.8,126.2,1.2,3.1,143.6,0.00,23.8,27.7,"19:31:20",1
"23/08/05","19:50",0.0,31.2,64.3,995.3,133.6,1.1,2.0,132.2,0.00,23.7,27.7,"19:43:28",1
"23/08/05","20:00",0.0,31.0,64.7,995.1,128.5,0.7,2.8,131.0,0.00,23.6,27.6,"19:53:44",1
"23/08/05","20:10",0.0,30.9,65.0,995.3,123.8,0.8,2.1,122.5,0.00,23.6,27.8,"20:02:00",1
"23/08/05","20:20",0.0,30.8,65.2,995.3,110.5,1.0,2.5,143.9,0.00,23.5,27.6,"20:11:28",1
"23/08/05","20:30",0.0,30.8,65.6,995.6,93.8,0.8,2.1,98.2,0.00,23.7,27.5,"20:27:04",1
"23/08/05","20:40",0.0,30.7,66.0,995.1,112.6,1.1,2.4,94.8,0.00,23.7,27.4,"20:34:40",1
"23/08/05","20:50",0.0,30.8,66.2,995.6,124.2,1.0,3.1,158.6,0.00,23.8,27.5,"20:44:08",1
"23/08/05","21:00",0.0,30.7,66.6,995.6,117.3,0.8,2.6,145.6,0.00,23.8,27.4,"20:54:32",1
"23/08/05","21:10",0.0,30.5,67.5,995.3,114.3,0.8,1.9,91.8,0.00,23.8,27.3,"21:01:12",1
"23/08/05","21:20",0.0,30.5,68.5,995.1,89.6,1.0,2.1,104.1,0.00,24.1,27.5,"21:13:04",1
"23/08/05","21:30",0.0,30.4,69.4,995.1,70.6,1.1,2.5,39.0,0.00,24.2,27.6,"21:28:08",1
"23/08/05","21:40",0.0,30.2,70.0,995.1,50.8,0.7,2.2,67.0,0.00,24.2,27.3,"21:35:20",1
"23/08/05","21:50",0.0,30.1,70.8,995.1,50.4,0.6,1.8,24.7,0.00,24.3,27.4,"21:48:24",1
"23/08/05","22:00",0.0,29.8,71.9,995.1,59.4,0.5,1.1,80.7,0.00,24.2,27.2,"21:56:00",1
"23/08/05","22:10",0.0,29.5,72.7,995.6,79.8,0.5,1.2,74.6,0.00,24.1,27.3,"22:04:40",1
"23/08/05","22:20",0.0,29.5,72.9,995.8,66.0,0.6,1.8,33.3,0.00,24.2,27.3,"22:16:48",1
"23/08/05","22:30",0.0,29.6,72.4,995.8,89.2,1.0,2.2,80.5,0.00,24.1,27.2,"22:22:24",1
"23/08/05","22:40",0.0,29.4,72.1,995.3,100.8,1.0,3.1,136.8,0.00,23.9,27.1,"22:37:44",1
"23/08/05","22:50",0.0,29.4,72.3,995.6,96.1,0.8,2.0,79.9,0.00,23.9,27.1,"22:49:20",1
"23/08/05","23:00",0.0,29.3,72.4,996.0,100.9,1.1,2.9,116.5,0.00,23.9,27.1,"22:53:28",1
"23/08/05","23:10",0.0,29.3,72.7,996.0,97.3,0.8,1.9,104.8,0.00,23.9,26.8,"23:00:24",1
"23/08/05","23:20",0.0,29.2,73.0,995.8,82.2,0.8,2.0,157.8,0.00,23.9,27.1,"23:19:04",1
"23/08/05","23:30",0.0,29.2,73.2,996.0,71.4,0.7,2.1,100.7,0.00,23.9,27.1,"23:25:20",1
"23/08/05","23:40",0.0,29.1,73.3,996.0,97.3,1.0,3.6,87.2,0.00,23.9,27.1,"23:37:52",1
"23/08/05","23:50",0.0,29.2,73.0,996.3,91.6,1.1,2.7,88.1,0.00,23.9,27.1,"23:42:32",1
"23/08/05","24:00",0.0,29.1,73.0,996.0,98.5,1.2,3.3,109.3,0.00,23.8,26.9,"23:59:12",1
